Weather History for KMIW - May, 2013

Change the Weather History Date:

Tuesday, May 7, 2013

  Actual Average Record
Temperature  
Mean Temperature 62 °F 57 °F  
Max Temperature 77 °F 68 °F 86 °F (2014)
Min Temperature 46 °F 45 °F 41 °F (2006)
Degree Days  
Heating Degree Days 3 9  
Month to date heating degree days 114 68  
Since 1 July heating degree days 6866 6853  
Cooling Degree Days 0 1  
Month to date cooling degree days 0 2  
Year to date cooling degree days 4 6  
Growing Degree Days 10 (Base 50)    
Moisture  
Dew Point 48 °F    
Average Humidity 67    
Maximum Humidity 100    
Minimum Humidity 33    
Precipitation  
Precipitation 0.00 in 0.12 in 1.25 in (2005)
Month to date precipitation 3.42 0.92  
Sea Level Pressure  
Sea Level Pressure 30.01 in    
Wind  
Wind Speed 3 mph (WSW)    
Max Wind Speed 8 mph    
Max Gust Speed 12 mph    
Visibility 9 miles    
Events      
T = Trace of Precipitation, MM = Missing Value Source: NWS Daily Summary

Daily Weather History Graph

Daily Weather History Graph

Search for Another Location

Airport or City:

Trip Planner

Search our weather history database for the weather conditions in past years. The results will help you decide how hot, cold, wet, or windy it might be!

Date:

Astronomy

May. 07, 2013 Rise Set
Actual Time 5:59 AM CDT 8:17 PM CDT
Civil Twilight 5:28 AM CDT 8:48 PM CDT
Nautical Twilight 4:49 AM CDT 9:27 PM CDT
Astronomical Twilight 4:07 AM CDT 10:10 PM CDT
Moon 4:36 AM CDT (5/7) 6:16 PM CDT (5/7)
Length of Visible Light 15h 20m
Length of Day
14h 18m
Waning Crescent, 5% of the Moon is Illuminated
May 7
Waning Crescent
May 9
New
May 17
First Quarter
May 24
Full
May 31
Last Quarter

Hourly Weather History & Observations

Time (CDT) Temp. Dew Point Humidity Pressure Visibility Wind Dir Wind Speed Gust Speed Precip Events Conditions
12:53 AM 52.0 °F 48.9 °F 89% 30.04 in 10.0 mi WNW 4.6 mph - N/A   Clear
1:53 AM 51.1 °F 48.9 °F 92% 30.04 in 10.0 mi WNW 4.6 mph - N/A   Clear
3:53 AM 48.0 °F 46.9 °F 96% 30.04 in 7.0 mi WNW 4.6 mph - N/A   Clear
4:53 AM 46.9 °F 46.0 °F 97% 30.04 in 6.0 mi NNW 3.5 mph - N/A   Clear
5:53 AM 50.0 °F 46.9 °F 89% 30.04 in 9.0 mi North 4.6 mph - N/A   Clear
6:53 AM 48.0 °F 46.0 °F 93% 30.05 in 4.0 mi NW 5.8 mph - N/A   Clear
7:53 AM 54.0 °F 50.0 °F 86% 30.06 in 8.0 mi Calm Calm - N/A   Clear
8:53 AM 62.1 °F 55.0 °F 78% 30.07 in 10.0 mi NW 3.5 mph - N/A   Clear
10:53 AM 71.1 °F 50.0 °F 47% 30.05 in 10.0 mi Variable 4.6 mph - N/A   Clear
11:53 AM 73.0 °F 48.0 °F 41% 30.04 in 10.0 mi Calm Calm - N/A   Clear
12:53 PM 73.0 °F 46.9 °F 39% 30.03 in 10.0 mi Calm Calm - N/A   Mostly Cloudy
1:53 PM 75.0 °F 46.0 °F 36% 30.02 in 10.0 mi Calm Calm - N/A   Mostly Cloudy
2:53 PM 73.9 °F 46.9 °F 38% 30.00 in 10.0 mi SW 3.5 mph - N/A   Scattered Clouds
3:53 PM 75.0 °F 46.9 °F 37% 29.99 in 10.0 mi Variable 5.8 mph - N/A   Clear
4:53 PM 75.0 °F 45.0 °F 34% 29.98 in 10.0 mi Calm Calm - N/A   Partly Cloudy
5:53 PM 73.9 °F 46.0 °F 37% 29.98 in 10.0 mi SW 5.8 mph - N/A   Clear
6:53 PM 73.0 °F 46.9 °F 39% 29.97 in 10.0 mi South 5.8 mph - N/A   Clear
7:53 PM 71.1 °F 48.9 °F 45% 29.97 in 10.0 mi SSE 3.5 mph - N/A   Clear
8:53 PM 68.0 °F 46.9 °F 47% 29.97 in 10.0 mi SSE 3.5 mph - N/A   Clear
9:53 PM 66.0 °F 46.9 °F 50% 29.98 in 10.0 mi SSE 3.5 mph - N/A   Clear
10:53 PM 64.0 °F 46.9 °F 54% 29.97 in 10.0 mi SSE 4.6 mph - N/A   Clear
11:53 PM 59.0 °F 48.0 °F 67% 29.97 in 10.0 mi SE 3.5 mph - N/A   Clear